sat.trackr.live / text

‹ back to catalog

YAOGAN-39 01C

NORAD 57731 · 2023-130E

PAYLOAD ACTIVE UNKNOWN

§ Identity

Operator
Country
PRC
Launch date
2023-08-31
Launch site
XICLF
Launch vehicle
Mass (kg)
RCS (m²)

External: N2YO · Heavens-Above · Gunter

§ Orbital elements

Epoch: 2026-09-21T11:49:56.107200Z

Period
94.93 min
Inclination
34.9929°
Eccentricity
0.0009493
Mean motion
15.16940250 rev/d
Perigee alt
508.6 km
Apogee alt
521.6 km
Semi-major
6,893.2 km
B*
1.6211e-4
RAAN
272.2495°
Arg perigee
105.2198°
Mean anomaly
254.9565°
Rev number
17,009

§ Raw data

YAOGAN-39 01C1 57731U 23130E   26264.49301050  .00003242  00000+0  16211-3 0  99982 57731  34.9929 272.2495 0009493 105.2198 254.9565 15.16940250170099

JSON: /api/v1/satellites/57731 · /tle

For live sub-satellite position, see the globe view (requires WebGL).

§ Visibility from observer

Set your observer location to see the next 7 days of passes ≥ 10°. The values pass through the URL so the page stays shareable.

No JS? Fill the form by hand. The geolocation button needs JavaScript.